Greenwich, CT

8:24 PM EST on February 24, 2017 (GMT -0500)
Westchester County

Weather History for KHPN - June, 2014

Change the Weather History Date:

Thursday, June 26, 2014

  Actual Average Record
Temperature  
Mean Temperature 76 °F -  
Max Temperature 84 °F 79 °F 92 °F (1982)
Min Temperature 68 °F 61 °F 48 °F (1979)
Cooling Degree Days 12    
Growing Degree Days 26 (Base 50)    
Moisture  
Dew Point 67 °F    
Average Humidity 77    
Maximum Humidity 97    
Minimum Humidity 54    
Precipitation  
Precipitation 0.05 in - - ()
Sea Level Pressure  
Sea Level Pressure 29.85 in    
Wind  
Wind Speed 5 mph (NNW)    
Max Wind Speed 12 mph    
Max Gust Speed -    
Visibility 9 miles    
Events Rain    
Averages and records for this station are not official NWS values.
T = Trace of Precipitation, MM = Missing Value Source: NWS Daily Summary

Daily Weather History Graph

Daily Weather History Graph

Search for Another Location

Airport or City:

Trip Planner

Search our weather history database for the weather conditions in past years. The results will help you decide how hot, cold, wet, or windy it might be!

Date:

Astronomy

Jun. 26, 2014 Rise Set
Actual Time 5:24 AM EDT 8:31 PM EDT
Civil Twilight 4:50 AM EDT 9:04 PM EDT
Nautical Twilight 4:07 AM EDT 9:47 PM EDT
Astronomical Twilight 3:16 AM EDT 10:39 PM EDT
Moon 5:01 AM EDT (6/26) 7:49 PM EDT (6/26)
Length of Visible Light 16h 14m
Length of Day
15h 07m
Waning Crescent, 0% of the Moon is Illuminated
Jun 26
Waning Crescent
Jun 27
New
Jul 5
First Quarter
Jul 12
Full
Jul 18
Last Quarter

Hourly Weather History & Observations

Time (EDT) Temp. Heat Index Dew Point Humidity Pressure Visibility Wind Dir Wind Speed Gust Speed Precip Events Conditions
12:27 AM 71.6 °F - 68.0 °F 88% 29.85 in 6.0 mi SW 4.6 mph - 0.00 in Rain Light Rain
12:56 AM 71.1 °F - 68.0 °F 90% 29.81 in 4.0 mi WNW 5.8 mph - N/A Rain Light Rain
1:56 AM 70.0 °F - 68.0 °F 93% 29.83 in 10.0 mi Calm Calm - N/A   Scattered Clouds
2:56 AM 70.0 °F - 68.0 °F 93% 29.81 in 10.0 mi Calm Calm - 0.01 in Rain Light Rain
3:56 AM 69.8 °F - 68.0 °F 94% 29.81 in 10.0 mi Calm Calm - N/A   Partly Cloudy
4:23 AM 69.8 °F - 66.2 °F 88% 29.81 in 9.0 mi Calm Calm - 0.01 in   Scattered Clouds
4:32 AM 69.8 °F - 66.2 °F 88% 29.81 in 8.0 mi WNW 4.6 mph - 0.01 in   Mostly Cloudy
4:56 AM 70.0 °F - 68.0 °F 93% 29.80 in 8.0 mi NNW 3.5 mph - 0.01 in   Overcast
5:56 AM 70.0 °F - 68.0 °F 93% 29.82 in 6.0 mi Calm Calm - N/A   Overcast
6:56 AM 70.0 °F - 69.1 °F 97% 29.82 in 5.0 mi West 3.5 mph - 0.01 in   Mostly Cloudy
7:56 AM 72.0 °F - 69.1 °F 91% 29.83 in 5.0 mi NW 3.5 mph - N/A   Mostly Cloudy
7:59 AM 71.6 °F - 69.8 °F 94% 29.85 in 9.0 mi WNW 4.6 mph - N/A   Overcast
8:24 AM 73.4 °F - 69.8 °F 88% 29.85 in 10.0 mi NNW 5.8 mph - N/A   Overcast
8:56 AM 73.9 °F - 69.1 °F 85% 29.85 in 10.0 mi NW 5.8 mph - N/A   Mostly Cloudy
9:56 AM 77.0 °F - 70.0 °F 79% 29.85 in 10.0 mi North 6.9 mph - N/A   Scattered Clouds
10:56 AM 78.1 °F - 68.0 °F 71% 29.84 in 10.0 mi NNW 5.8 mph - 0.01 in   Mostly Cloudy
11:56 AM 82.0 °F 84.5 °F 66.9 °F 60% 29.84 in 10.0 mi North 11.5 mph - N/A   Mostly Cloudy
12:56 PM 80.1 °F 82.3 °F 66.9 °F 64% 29.83 in 10.0 mi West 6.9 mph - N/A   Mostly Cloudy
1:56 PM 82.9 °F 85.0 °F 66.0 °F 56% 29.83 in 10.0 mi NNW 6.9 mph - N/A   Mostly Cloudy
2:56 PM 82.9 °F 85.4 °F 66.9 °F 58% 29.83 in 10.0 mi NNW 9.2 mph - N/A   Mostly Cloudy
3:56 PM 82.9 °F 85.4 °F 66.9 °F 58% 29.83 in 10.0 mi NW 10.4 mph - 0.01 in   Mostly Cloudy
4:56 PM 84.2 °F 86.6 °F 66.2 °F 55% 29.86 in 10.0 mi North 9.2 mph - N/A   Mostly Cloudy
5:56 PM 82.9 °F 84.6 °F 64.9 °F 54% 29.85 in 10.0 mi North 9.2 mph - N/A   Scattered Clouds
6:56 PM 82.0 °F 83.4 °F 64.0 °F 54% 29.86 in 10.0 mi North 10.4 mph - N/A   Scattered Clouds
7:56 PM 78.1 °F - 63.0 °F 60% 29.88 in 10.0 mi North 8.1 mph - N/A   Scattered Clouds
8:56 PM 73.9 °F - 63.0 °F 68% 29.89 in 10.0 mi NW 6.9 mph - N/A   Scattered Clouds
9:56 PM 75.0 °F - 62.1 °F 64% 29.92 in 10.0 mi NNE 4.6 mph - N/A   Mostly Cloudy
10:56 PM 69.1 °F - 64.9 °F 87% 29.95 in 10.0 mi East 6.9 mph - N/A   Scattered Clouds
11:56 PM 68.0 °F - 63.0 °F 84% 29.97 in 10.0 mi East 5.8 mph - N/A   Clear